Castroville, TX

2:41 AM CDT on August 25, 2019 (GMT -0500)
Castroville

Weather History for KCVB - July, 2019

Change the Weather History Date:

Sunday, July 21, 2019

  Actual Average (WUND) Record (WUND)
Temperature  
Mean Temperature 85 °F -  
Max Temperature 98 °F - - (-1)
Min Temperature 72 °F - - (-1)
Cooling Degree Days 20    
Growing Degree Days 35 (Base 50)    
Moisture  
Dew Point 67 °F    
Average Humidity 58    
Maximum Humidity 96    
Minimum Humidity 28    
Precipitation  
Precipitation 0.00 in - - ()
Sea Level Pressure  
Sea Level Pressure 29.95 in    
Wind  
Wind Speed 8 mph (SE)    
Max Wind Speed 20 mph    
Max Gust Speed 28 mph    
Visibility 10 miles    
Events      
Averages and records for this station are not official NWS values.
T = Trace of Precipitation, MM = Missing Value Source: NWS Daily Summary

Daily Weather History Graph

Daily Weather History Graph

Search for Another Location

Airport or City:

Astronomy

Jul. 21, 2019 Rise Set
Actual Time 6:49 AM CDT 8:34 PM CDT
Civil Twilight 6:22 AM CDT 9:00 PM CDT
Nautical Twilight 5:51 AM CDT 9:32 PM CDT
Astronomical Twilight 5:17 AM CDT 10:05 PM CDT
Moon 11:48 PM CDT (7/21) 10:55 AM CDT (7/21)
Length of Visible Light 14h 37m
Length of Day
13h 44m
Waning Gibbous, 80% of the Moon is Illuminated
Jul 21
Waning Gibbous
Jul 24
Last Quarter
Jul 31
New
Aug 7
First Quarter
Aug 15
Full

Hourly Weather History & Observations

Time (CDT) Temp. Heat Index Dew Point Humidity Pressure Visibility Wind Dir Wind Speed Gust Speed Precip Events Conditions
12:15 AM 80.6 °F 82.7 °F 66.2 °F 61% 29.96 in 10.0 mi ESE 6.9 mph - N/A   Clear
12:35 AM 80.2 °F 82.5 °F 66.6 °F 63% 29.96 in 10.0 mi ESE 5.8 mph - N/A   Clear
12:55 AM 79.7 °F - 67.5 °F 66% 29.97 in 10.0 mi SE 5.8 mph - N/A   Clear
1:15 AM 79.0 °F - 68.0 °F 69% 29.96 in 10.0 mi SE 6.9 mph - N/A   Clear
1:35 AM 78.8 °F - 68.7 °F 71% 29.96 in 10.0 mi SE 5.8 mph - N/A   Clear
1:55 AM 78.4 °F - 69.1 °F 73% 29.96 in 10.0 mi SE 8.1 mph - N/A   Clear
2:15 AM 77.9 °F - 69.1 °F 74% 29.95 in 10.0 mi SSE 6.9 mph - N/A   Clear
2:35 AM 77.2 °F - 68.9 °F 76% 29.95 in 10.0 mi SSE 6.9 mph - N/A   Clear
2:55 AM 76.6 °F - 68.9 °F 77% 29.96 in 10.0 mi SE 6.9 mph - N/A   Clear
3:15 AM 76.1 °F - 68.9 °F 78% 29.96 in 10.0 mi SE 5.8 mph - N/A   Clear
3:35 AM 75.6 °F - 69.8 °F 82% 29.96 in 10.0 mi SE 4.6 mph - N/A   Clear
3:55 AM 75.0 °F - 71.6 °F 89% 29.96 in 10.0 mi SE 3.5 mph - N/A   Clear
4:15 AM 74.7 °F - 71.6 °F 90% 29.96 in 10.0 mi SE 4.6 mph - N/A   Clear
4:35 AM 74.3 °F - 71.8 °F 92% 29.96 in 10.0 mi ESE 3.5 mph - N/A   Clear
4:55 AM 74.3 °F - 71.8 °F 92% 29.95 in 10.0 mi East 4.6 mph - N/A   Clear
5:15 AM 73.4 °F - 71.2 °F 93% 29.96 in 10.0 mi East 3.5 mph - N/A   Clear
5:35 AM 73.0 °F - 71.2 °F 94% 29.96 in 10.0 mi East 3.5 mph - N/A   Clear
5:55 AM 72.7 °F - 71.1 °F 95% 29.97 in 10.0 mi ENE 3.5 mph - N/A   Clear
6:15 AM 72.7 °F - 71.6 °F 96% 29.97 in 10.0 mi East 4.6 mph - N/A   Clear
6:35 AM 72.7 °F - 71.6 °F 96% 29.97 in 10.0 mi East 4.6 mph - N/A   Scattered Clouds
6:55 AM 73.4 °F - 72.1 °F 96% 29.97 in 10.0 mi East 4.6 mph - N/A   Mostly Cloudy
7:15 AM 73.9 °F - 72.7 °F 96% 29.98 in 10.0 mi East 5.8 mph - N/A   Overcast
7:35 AM 74.8 °F - 73.4 °F 95% 29.98 in 10.0 mi SE 6.9 mph - N/A   Overcast
7:55 AM 75.4 °F - 73.8 °F 95% 29.98 in 7.0 mi SSE 9.2 mph - N/A   Overcast
8:15 AM 76.8 °F - 73.8 °F 90% 29.99 in 10.0 mi SSE 9.2 mph 16.1 mph N/A   Overcast
8:35 AM 77.9 °F - 73.6 °F 86% 29.99 in 7.0 mi SSE 10.4 mph - N/A   Overcast
8:55 AM 80.4 °F 84.7 °F 72.7 °F 77% 29.99 in 10.0 mi SSE 10.4 mph - N/A   Overcast
9:15 AM 80.8 °F 84.1 °F 69.8 °F 69% 29.99 in 10.0 mi SSE 12.7 mph - N/A   Scattered Clouds
9:35 AM 82.4 °F 85.8 °F 68.9 °F 64% 29.99 in 10.0 mi SSE 9.2 mph - N/A   Scattered Clouds
9:55 AM 83.5 °F 86.7 °F 68.4 °F 60% 29.99 in 10.0 mi South 11.5 mph 16.1 mph N/A   Clear
10:15 AM 85.3 °F 88.8 °F 68.4 °F 57% 29.99 in 10.0 mi SSE 10.4 mph - N/A   Clear
10:35 AM 86.0 °F 89.1 °F 67.5 °F 54% 29.99 in 10.0 mi SE 11.5 mph - N/A   Clear
10:55 AM 87.3 °F 90.2 °F 67.3 °F 51% 29.99 in 10.0 mi SSE 11.5 mph - N/A   Clear
11:15 AM 88.7 °F 91.5 °F 66.6 °F 48% 29.99 in 10.0 mi SSE 8.1 mph - N/A   Clear
11:35 AM 90.1 °F 92.3 °F 65.7 °F 44% 29.99 in 10.0 mi SSE 11.5 mph - N/A   Clear
11:55 AM 91.0 °F 93.0 °F 65.3 °F 42% 29.99 in 10.0 mi South 11.5 mph 17.3 mph N/A   Clear
12:15 PM 91.4 °F 92.8 °F 64.0 °F 40% 29.98 in 10.0 mi South 11.5 mph - N/A   Clear
12:35 PM 92.3 °F 93.4 °F 63.0 °F 38% 29.97 in 10.0 mi SSW 11.5 mph 18.4 mph N/A   Clear
12:55 PM 92.8 °F 93.9 °F 63.3 °F 37% 29.97 in 10.0 mi South 8.1 mph 17.3 mph N/A   Clear
1:15 PM 93.6 °F 94.6 °F 63.1 °F 36% 29.97 in 10.0 mi South 9.2 mph 17.3 mph N/A   Clear
1:35 PM 94.1 °F 95.5 °F 63.7 °F 36% 29.96 in 10.0 mi South 9.2 mph 16.1 mph N/A   Scattered Clouds
1:55 PM 95.2 °F 96.3 °F 63.0 °F 34% 29.96 in 10.0 mi South 11.5 mph 16.1 mph N/A   Scattered Clouds
2:15 PM 96.1 °F 97.3 °F 62.8 °F 33% 29.95 in 10.0 mi SSE 9.2 mph 19.6 mph N/A   Scattered Clouds
2:35 PM 96.1 °F 97.3 °F 62.4 °F 33% 29.94 in 10.0 mi SE 12.7 mph - N/A   Scattered Clouds
2:55 PM 97.5 °F 99.2 °F 63.1 °F 32% 29.94 in 10.0 mi SSE 10.4 mph 16.1 mph N/A   Scattered Clouds
3:15 PM 97.0 °F 98.8 °F 63.1 °F 33% 29.93 in 10.0 mi ESE 13.8 mph 18.4 mph N/A   Scattered Clouds
3:35 PM 96.4 °F 97.9 °F 62.8 °F 33% 29.93 in 10.0 mi SE 11.5 mph 17.3 mph N/A   Scattered Clouds
3:55 PM 97.0 °F 98.3 °F 63.0 °F 32% 29.92 in 10.0 mi SE 11.5 mph 18.4 mph N/A   Scattered Clouds
4:15 PM 96.6 °F 98.2 °F 62.8 °F 33% 29.92 in 10.0 mi SE 13.8 mph 19.6 mph N/A   Scattered Clouds
4:35 PM 96.3 °F 97.6 °F 62.8 °F 33% 29.91 in 10.0 mi ESE 8.1 mph 19.6 mph N/A   Scattered Clouds
4:55 PM 97.5 °F 98.7 °F 61.9 °F 31% 29.90 in 10.0 mi SE 11.5 mph - N/A   Scattered Clouds
5:15 PM 98.4 °F 99.2 °F 61.5 °F 29% 29.90 in 10.0 mi SSE 11.5 mph - N/A   Clear
5:35 PM 98.6 °F 98.9 °F 60.3 °F 28% 29.89 in 10.0 mi SE 10.4 mph 16.1 mph N/A   Clear
5:55 PM 97.9 °F 98.8 °F 61.2 °F 30% 29.87 in 10.0 mi ESE 6.9 mph 18.4 mph N/A   Clear
6:15 PM 98.1 °F 98.6 °F 60.8 °F 29% 29.87 in 10.0 mi SE 10.4 mph 17.3 mph N/A   Clear
6:35 PM 97.2 °F 97.2 °F 60.1 °F 29% 29.88 in 10.0 mi SE 6.9 mph 17.3 mph N/A   Scattered Clouds
6:55 PM 97.0 °F 97.4 °F 60.4 °F 30% 29.87 in 10.0 mi ESE 11.5 mph 16.1 mph N/A   Clear
7:15 PM 96.3 °F 96.3 °F 60.4 °F 30% 29.88 in 10.0 mi ESE 10.4 mph - N/A   Clear
7:35 PM 96.3 °F 96.7 °F 60.8 °F 31% 29.88 in 10.0 mi ESE 10.4 mph - N/A   Scattered Clouds
7:55 PM 94.6 °F 95.5 °F 62.6 °F 34% 29.88 in 10.0 mi ESE 11.5 mph 17.3 mph N/A   Scattered Clouds
8:15 PM 92.5 °F 95.0 °F 65.5 °F 41% 29.89 in 10.0 mi SE 13.8 mph 20.7 mph N/A   Scattered Clouds
8:35 PM 89.8 °F 93.3 °F 67.5 °F 48% 29.90 in 10.0 mi ESE 15.0 mph 25.3 mph N/A   Scattered Clouds
8:55 PM 88.3 °F 91.6 °F 67.6 °F 50% 29.91 in 10.0 mi SE 17.3 mph 27.6 mph N/A   Scattered Clouds
9:15 PM 87.3 °F 90.2 °F 67.3 °F 51% 29.92 in 10.0 mi SE 12.7 mph - N/A   Clear
9:35 PM 86.4 °F 89.0 °F 67.1 °F 52% 29.92 in 10.0 mi SE 19.6 mph - N/A   Clear
9:55 PM 86.0 °F 89.1 °F 67.6 °F 54% 29.93 in 10.0 mi SSE 12.7 mph 19.6 mph N/A   Clear
10:15 PM 85.3 °F 88.2 °F 67.3 °F 55% 29.94 in 10.0 mi SE 10.4 mph - N/A   Clear
10:35 PM 84.6 °F 87.1 °F 66.6 °F 55% 29.95 in 10.0 mi SE 11.5 mph 18.4 mph N/A   Clear
10:55 PM 83.7 °F 86.0 °F 66.4 °F 56% 29.95 in 10.0 mi SE 12.7 mph 19.6 mph N/A   Clear
11:15 PM 82.8 °F 85.3 °F 67.1 °F 59% 29.96 in 10.0 mi SE 11.5 mph - N/A   Clear
11:35 PM 81.9 °F 84.8 °F 68.0 °F 63% 29.96 in 10.0 mi SE 9.2 mph - N/A   Clear
11:55 PM 81.5 °F 84.4 °F 68.2 °F 64% 29.97 in 10.0 mi SE 10.4 mph - N/A   Clear